Volver al catálogo

STARLINK-5897

ActivoComunicacionesVLEO
NORAD 55931·PAYLOAD·🇺🇸 United States

Lanzado Mar 17, 2023 desde Vandenberg Space Force Base

Loading…

Próximos Pases (próximas 24 horas)

TLE

ActualizadoSource: CelesTrak SupGP

Época: Sep 14, 2026, 14:49 UTC

1 55931C 23037T   26257.61784722  .00052672  00000+0  44148-2 0  2578
2 55931  70.0024 187.9229 0002937 266.5899   4.5235 14.98298556    19

Sigue STARLINK-5897 en tiempo real con AllMySat

Download on the App Store